View from above orbital plane
|
View from above satellite
|
Ground track
|
The orbit data is extracted from the following two-line orbital elements,
1 23604U 95032B 21018.89537047 .00000073 00000-0 61054-4 0 9999
2 23604 82.9030 260.7390 0023953 184.4769 175.6176 13.74286556280951
Epoch (UTC): | 18 January 2021 21:29:20 |
Eccentricity: | 0.0023953 |
inclination: | 82.9030° |
perigee height: | 966 km |
apogee height: | 1002 km |
right ascension of ascending node: | 260.7390° |
argument of perigee: | 184.4769° |
revolutions per day: | 13.74286556 |
mean anomaly at epoch: | 175.6176° |
orbit number at epoch: | 28095 |
The dashed part of the orbit path shows where the satellite is in the earth's shadow,
|
|